Date,TemperatureHighF,TemperatureAvgF,TemperatureLowF,DewpointHighF,DewpointAvgF,DewpointLowF,HumidityHigh,HumidityAvg,HumidityLow,PressureMaxIn,PressureMinIn,WindSpeedMaxMPH,WindSpeedAvgMPH,GustSpeedMaxMPH,PrecipitationSumIn
2013-1-1,9,0,-6,5,-4,-11,83,80,77,30.36,30.29,5,3,0,0.00
2013-1-2,17,1,-7,1,-8,-13,79,68,50,30.74,30.58,7,3,0,0.00
2013-1-3,30,8,-9,1,-8,-14,78,52,27,30.80,30.67,9,4,0,0.00
2013-1-4,41,13,-8,11,-3,-15,74,54,27,30.79,30.43,12,4,0,0.00
2013-1-5,40,17,-1,9,1,-8,80,55,22,30.68,30.44,14,4,0,0.00
2013-1-6,49,22,-3,11,2,-8,82,47,19,30.67,30.28,10,4,0,0.00
2013-1-7,42,22,3,11,4,-4,73,47,26,30.28,30.05,15,4,0,0.00
2013-1-8,47,24,6,17,6,-4,73,52,27,30.52,30.13,12,4,0,0.00
2013-1-9,49,23,7,15,9,1,79,59,24,30.53,30.37,6,3,0,0.00
2013-1-10,49,25,3,16,6,-3,82,51,16,30.37,29.75,37,6,0,0.00
2013-1-11,35,22,-1,20,3,-12,62,45,29,29.94,29.34,38,10,0,0.00
2013-1-12,20,4,-10,0,-9,-19,78,56,24,30.37,29.94,16,5,0,0.00
2013-1-13,18,1,-18,0,-10,-25,80,64,30,30.54,30.37,14,4,0,0.00
2013-1-14,18,2,-15,4,-5,-21,81,73,49,30.52,30.33,12,3,0,0.00
2013-1-15,26,8,-18,9,-6,-24,77,56,34,30.73,30.51,9,3,0,0.00
2013-1-16,45,25,10,18,11,2,82,57,32,30.64,30.39,11,4,0,0.00
2013-1-17,45,22,4,19,10,-1,85,65,34,30.75,30.56,9,4,0,0.00
2013-1-18,48,26,7,13,8,1,82,51,20,30.57,30.33,17,6,0,0.00
2013-1-19,48,28,10,13,6,1,67,44,23,30.44,30.37,12,5,0,0.00
2013-1-20,50,26,9,9,3,-5,73,42,15,30.46,30.31,15,5,0,0.00
2013-1-21,50,28,4,13,6,-3,77,45,20,30.46,30.31,17,5,0,0.00
2013-1-22,57,31,10,5,0,-4,58,32,9,30.40,30.21,21,6,0,0.00
2013-1-23,61,43,10,8,2,-5,50,21,8,30.45,30.33,10,4,0,0.00
2013-1-24,40,27,21,23,11,1,73,50,37,30.33,30.13,7,3,0,0.00
2013-1-25,52,37,22,29,24,17,85,62,39,30.23,30.09,15,4,0,0.00
2013-1-26,51,38,25,36,27,18,90,69,41,30.12,29.70,6,2,0,0.03
2013-1-27,50,39,26,29,24,16,90,59,36,29.77,29.66,23,6,0,0.00
2013-1-28,47,33,21,35,22,7,85,66,36,29.74,29.53,27,7,0,0.01
2013-1-29,28,22,16,18,10,-5,82,64,27,29.97,29.63,15,5,0,0.00
2013-1-30,36,23,0,7,3,-9,73,43,28,30.24,30.14,24,8,0,0.00
2013-1-31,44,30,11,12,8,2,69,43,25,30.27,30.19,24,6,0,0.00
2013-2-1,46,32,15,13,10,5,71,42,25,30.25,30.11,31,9,0,0.00
2013-2-2,50,35,4,12,6,-1,79,34,16,30.50,30.39,19,6,0,0.00
2013-2-3,48,31,10,13,7,1,70,41,17,30.45,30.06,17,5,0,0.00
2013-2-4,50,32,11,8,5,1,68,36,16,30.12,29.97,21,6,0,0.00
2013-2-5,55,32,13,15,9,1,65,40,17,30.14,29.96,14,5,0,0.00
2013-2-6,52,34,13,27,13,4,81,46,21,30.05,29.90,17,6,0,0.00
2013-2-7,46,30,11,28,18,3,90,66,18,30.20,30.05,13,4,0,0.00
2013-2-8,48,30,11,19,13,6,85,55,26,30.19,29.89,22,7,0,0.00
2013-2-9,41,33,26,18,10,5,57,40,22,29.68,29.38,23,10,0,0.00
2013-2-10,38,25,17,17,7,0,84,49,23,30.07,29.54,18,7,0,0.00
2013-2-11,21,13,-5,14,8,-10,85,80,72,30.34,30.08,11,3,0,0.19
2013-2-12,32,8,-12,12,-2,-17,83,68,36,30.54,30.35,10,4,0,0.00
2013-2-13,41,21,-2,14,7,-7,83,59,33,30.50,30.22,13,4,0,0.00
2013-2-14,42,21,3,20,10,-2,83,66,27,30.47,30.19,16,5,0,0.00
2013-2-15,39,21,0,12,5,-5,84,55,24,30.54,30.43,16,5,0,0.00
2013-2-16,49,28,5,15,8,-2,76,46,23,30.54,30.20,22,5,0,0.00
2013-2-17,50,35,18,11,5,0,54,31,14,30.20,29.67,20,8,0,0.00
2013-2-18,38,27,8,16,5,-4,79,44,19,30.20,29.68,22,7,0,0.00
2013-2-19,46,22,3,12,4,-2,80,50,15,30.25,29.95,15,5,0,0.00
2013-2-20,35,23,13,22,13,-100,88,69,41,29.95,29.66,16,4,0,0.25
2013-2-21,34,21,11,24,17,7,88,83,64,30.01,29.68,15,4,0,0.05
2013-2-22,33,18,6,21,13,2,88,81,57,30.18,30.00,15,4,0,0.00
2013-2-23,42,23,-1,22,10,-5,87,61,36,30.16,29.82,16,5,0,0.00
2013-2-24,34,22,16,24,16,7,89,78,62,30.19,29.72,15,6,0,0.12
2013-2-25,40,18,2,17,6,-3,84,63,29,30.31,30.08,14,5,0,0.00
2013-2-26,29,18,4,20,11,0,85,76,52,30.34,29.94,13,4,0,0.07
2013-2-27,35,13,-12,12,2,-17,85,64,28,30.62,30.35,13,4,0,0.00
2013-2-28,42,20,-3,10,3,-8,82,54,24,30.64,30.44,13,5,0,0.00
2013-3-1,48,32,14,18,14,6,80,50,29,30.53,30.34,21,6,0,0.00
2013-3-2,55,36,18,26,21,12,81,56,27,30.46,30.16,16,4,0,0.00
2013-3-3,54,42,29,23,20,16,76,43,26,30.15,29.66,33,8,0,0.00
2013-3-4,49,34,19,29,22,16,89,66,30,30.20,29.62,23,7,0,0.06
2013-3-5,54,26,2,23,13,-2,87,64,15,30.45,30.20,14,3,0,0.00
2013-3-6,57,41,21,21,17,11,84,42,23,30.31,29.86,22,6,0,0.00
2013-3-7,60,45,29,17,13,9,60,31,15,29.88,29.76,18,5,0,0.00
2013-3-8,52,39,25,27,20,15,75,49,29,29.85,29.59,21,6,0,0.00
2013-3-9,35,29,22,27,19,11,86,68,57,30.10,29.52,25,8,0,0.07
2013-3-10,43,26,2,16,11,-3,85,55,28,30.26,30.10,15,5,0,0.00
2013-3-11,52,36,22,18,15,12,67,45,25,30.25,29.95,24,6,0,0.00
2013-3-12,39,29,22,28,23,19,90,81,64,30.40,30.09,18,6,0,0.00
2013-3-13,59,41,23,24,20,16,86,47,24,30.45,30.26,26,6,0,0.00
2013-3-14,65,46,26,22,18,15,68,38,17,30.36,30.15,14,4,0,0.00
2013-3-15,64,46,27,24,17,12,69,37,14,30.16,29.83,26,8,0,0.00
2013-3-16,51,39,28,33,26,16,87,61,42,29.89,29.76,17,5,0,0.01
2013-3-17,51,37,20,30,21,13,91,58,26,29.85,29.57,35,10,0,0.00
2013-3-18,43,33,25,15,9,4,47,38,23,29.90,29.83,20,9,0,0.00
2013-3-19,47,37,15,14,9,4,60,33,20,30.25,29.99,17,7,0,0.00
2013-3-20,54,34,10,23,12,2,77,45,20,30.31,29.87,30,8,0,0.00
2013-3-21,51,41,26,27,19,6,79,44,27,29.86,29.45,31,10,0,0.00
2013-3-22,45,33,24,26,21,12,89,64,27,29.78,29.59,17,5,0,0.00
2013-3-23,28,18,11,18,12,3,85,76,60,30.36,29.74,24,9,0,0.19
2013-3-24,30,10,-14,14,1,-20,86,71,34,30.54,30.35,20,5,0,0.00
2013-3-25,34,17,0,15,6,-5,85,64,36,30.55,30.43,19,5,0,0.00
2013-3-26,55,31,8,20,13,4,85,54,24,30.51,30.08,20,5,0,0.00
2013-3-27,57,39,21,28,21,15,78,53,22,30.12,29.96,18,6,0,0.00
2013-3-28,61,41,23,27,22,17,86,53,20,30.12,30.02,15,4,0,0.00
2013-3-29,63,43,23,27,22,18,85,49,19,30.15,29.99,22,5,0,0.00
2013-3-30,61,44,25,30,22,17,79,46,22,30.12,29.94,28,6,0,0.00
2013-3-31,65,48,34,31,22,13,86,46,15,30.09,29.83,19,7,0,0.00
2013-4-1,54,39,23,29,22,12,83,53,33,30.04,29.79,21,8,0,0.00
2013-4-2,42,31,26,29,26,22,90,79,60,30.16,30.00,18,6,0,0.05
2013-4-3,54,36,26,34,28,23,91,76,38,30.23,30.10,15,4,0,0.02
2013-4-4,65,43,20,27,20,13,90,50,15,30.29,30.04,13,4,0,0.00
2013-4-5,66,47,27,29,21,13,68,41,15,30.04,29.65,24,8,0,0.00
2013-4-6,62,47,25,29,23,12,80,44,15,29.82,29.70,18,4,0,0.00
2013-4-7,58,47,28,24,21,17,73,38,24,29.75,29.57,29,8,0,0.00
2013-4-8,63,47,27,27,21,17,70,41,18,29.64,29.27,33,7,0,0.00
2013-4-9,47,28,13,26,17,8,82,68,44,30.05,29.37,15,8,0,0.02
2013-4-10,38,26,12,16,14,8,85,62,39,30.28,30.11,17,8,0,0.00
2013-4-11,53,36,11,28,19,6,86,56,29,30.14,29.88,19,7,0,0.00
2013-4-12,55,37,18,29,22,14,88,60,25,29.99,29.86,20,5,0,0.00
2013-4-13,62,48,27,30,21,13,91,44,17,29.99,29.32,30,12,0,0.00
2013-4-14,51,42,33,35,23,13,91,52,25,29.61,29.30,29,10,0,0.10
2013-4-15,48,35,26,20,15,6,75,46,31,29.84,29.55,18,10,0,0.00
2013-4-16,40,30,23,24,20,16,83,69,53,29.93,29.74,24,11,0,0.00
2013-4-17,29,24,14,25,21,11,91,88,83,30.15,29.83,18,8,0,0.48
2013-4-18,32,21,11,22,15,8,88,76,58,30.43,30.16,17,4,0,0.11
2013-4-19,48,31,7,21,13,1,78,49,30,30.43,30.10,18,6,0,0.00
2013-4-20,52,38,28,31,24,18,84,58,35,30.09,29.86,13,4,0,0.00
2013-4-21,58,41,25,30,22,13,90,54,18,30.12,29.95,17,5,0,0.00
2013-4-22,63,40,22,31,24,19,88,58,21,30.06,29.70,24,8,0,0.00
2013-4-23,28,21,16,20,16,12,88,83,73,30.43,30.03,14,7,0,0.12
2013-4-24,52,32,13,23,16,9,86,59,24,30.44,30.29,16,5,0,0.00
2013-4-25,62,44,25,33,24,19,82,52,23,30.33,29.85,15,5,0,0.00
2013-4-26,60,47,31,31,26,20,79,49,24,30.20,29.91,22,5,0,0.00
2013-4-27,67,48,26,31,21,14,88,44,14,30.20,29.97,16,4,0,0.00
2013-4-28,71,48,27,23,19,15,63,38,14,30.03,29.75,17,6,0,0.00
2013-4-29,73,55,30,28,23,18,70,33,15,29.81,29.52,35,7,0,0.00
2013-4-30,73,54,40,27,22,18,48,30,17,29.52,29.43,19,5,0,0.00
2013-5-1,44,32,22,33,26,19,89,81,65,30.56,29.60,18,6,0,0.21
2013-5-2,41,29,20,26,21,17,88,74,49,30.80,30.57,12,4,0,0.02
2013-5-3,62,48,27,23,20,16,79,35,20,30.49,30.08,14,5,0,0.00
2013-5-4,55,42,22,25,22,17,83,46,32,30.16,29.97,19,7,0,0.00
2013-5-5,52,39,25,22,19,16,75,46,30,30.16,30.04,14,5,0,0.00
2013-5-6,56,42,31,39,28,-100,90,62,41,30.14,29.89,14,4,0,0.12
2013-5-7,64,47,35,39,33,26,89,62,25,29.95,29.80,15,5,0,0.00
2013-5-8,52,42,34,39,34,-100,91,76,53,30.02,29.86,16,4,0,0.17
2013-5-9,41,37,34,37,33,-100,92,88,80,30.25,29.99,10,2,0,0.63
2013-5-10,53,42,30,41,35,28,93,79,48,30.32,30.20,15,4,0,0.06
2013-5-11,64,45,30,38,34,28,93,69,36,30.40,30.21,17,4,0,0.00
2013-5-12,70,52,32,39,34,29,91,56,27,30.25,30.03,13,4,0,0.00
2013-5-13,76,55,34,43,35,29,85,53,22,30.14,29.97,22,5,0,0.00
2013-5-14,76,56,38,43,38,33,83,54,23,29.97,29.78,20,5,0,0.01
2013-5-15,72,55,40,43,40,36,87,59,28,29.85,29.72,16,4,0,0.00
2013-5-16,75,58,39,42,36,29,90,52,19,29.78,29.63,20,6,0,0.00
2013-5-17,77,58,37,38,26,15,85,39,11,29.75,29.62,23,7,0,0.00
2013-5-18,67,53,36,32,25,17,54,35,23,29.72,29.60,14,5,0,0.00
2013-5-19,62,49,33,31,26,22,76,43,24,29.77,29.62,29,8,0,0.00
2013-5-20,60,45,29,37,29,22,84,57,31,29.95,29.77,17,5,0,0.00
2013-5-21,68,49,30,30,28,22,91,53,19,29.96,29.78,17,4,0,0.00
2013-5-22,75,54,29,36,30,25,85,46,19,29.85,29.67,18,6,0,0.00
2013-5-23,58,49,42,42,39,33,81,69,40,29.90,29.80,13,7,0,0.00
2013-5-24,78,59,38,46,29,16,93,44,12,29.95,29.76,29,8,0,0.00
2013-5-25,80,60,34,26,19,16,51,24,10,29.86,29.68,29,8,0,0.00
2013-5-26,80,62,35,26,19,15,50,22,10,29.76,29.58,19,6,0,0.00
2013-5-27,75,60,36,26,20,15,43,23,13,29.67,29.45,24,7,0,0.00
2013-5-28,74,56,32,26,18,10,57,27,11,29.63,29.41,26,8,0,0.00
2013-5-29,66,55,45,31,24,15,49,31,20,29.54,29.32,22,8,0,0.00
2013-5-30,66,54,33,24,20,16,56,29,17,29.72,29.53,29,11,0,0.00
2013-5-31,66,55,39,25,18,10,49,26,11,29.87,29.66,29,11,0,0.00
2013-6-1,67,50,28,31,21,8,59,33,22,30.09,29.88,16,5,0,0.00
2013-6-2,81,57,28,35,27,22,81,39,13,30.09,29.72,17,5,0,0.00
2013-6-3,80,60,40,34,29,21,50,33,16,29.72,29.52,26,8,0,0.00
2013-6-4,82,57,38,36,30,24,59,38,17,29.73,29.66,18,5,0,0.00
2013-6-5,57,50,46,45,43,42,90,78,62,30.02,29.77,21,10,0,0.00
2013-6-6,74,58,35,43,38,30,91,54,22,30.03,29.85,17,5,0,0.00
2013-6-7,72,53,35,46,36,-100,85,59,31,29.92,29.74,21,4,0,0.04
2013-6-8,81,60,38,44,38,34,86,51,20,29.81,29.62,19,7,0,0.00
2013-6-9,86,61,35,43,35,27,89,46,16,29.86,29.71,14,4,0,0.00
2013-6-10,92,68,39,34,30,25,61,29,12,29.81,29.60,19,6,0,0.00
2013-6-11,89,72,47,32,25,15,45,21,7,29.66,29.48,33,11,0,0.00
2013-6-12,87,69,42,33,26,17,37,21,12,29.80,29.66,19,6,0,0.00
2013-6-13,87,62,45,34,28,25,48,30,14,29.80,29.70,13,4,0,0.00
2013-6-14,87,71,57,43,39,34,55,33,16,29.66,29.53,19,8,0,0.00
2013-6-15,83,65,39,41,34,25,85,40,13,29.81,29.65,16,6,0,0.00
2013-6-16,81,62,45,45,38,33,69,44,19,29.89,29.72,24,5,0,0.00
2013-6-17,82,64,48,44,38,27,68,42,14,29.92,29.75,22,7,0,0.00
2013-6-18,80,62,47,45,41,31,81,49,19,29.91,29.65,43,7,0,0.00
2013-6-19,87,65,36,46,28,11,91,40,7,29.75,29.53,27,8,0,0.00
2013-6-20,84,66,42,22,15,8,25,15,7,29.65,29.54,26,8,0,0.00
2013-6-21,86,65,39,26,19,10,31,18,10,29.70,29.56,26,7,0,0.00
2013-6-22,84,66,42,28,22,15,38,20,10,29.67,29.48,20,7,0,0.00
2013-6-23,77,66,40,46,36,12,52,34,22,29.69,29.56,19,8,0,0.00
2013-6-24,82,66,41,48,28,16,81,33,10,29.70,29.54,29,9,0,0.00
2013-6-25,87,70,45,34,26,15,32,20,14,29.72,29.57,19,7,0,0.00
2013-6-26,92,71,46,39,33,26,47,27,13,29.82,29.68,15,5,0,0.00
2013-6-27,92,74,50,49,36,28,50,28,14,29.93,29.75,16,6,0,0.00
2013-6-28,92,70,55,50,46,39,70,45,17,29.93,29.72,33,6,0,0.31
2013-6-29,82,75,62,50,48,46,59,39,28,29.89,29.84,18,8,0,0.00
2013-6-30,56,51,46,49,47,44,93,87,75,29.99,29.98,4,2,0,0.00
2013-7-1,71,59,49,52,49,47,93,71,44,30.06,30.00,23,5,0,0.01
2013-7-2,77,61,45,51,46,41,93,63,28,30.05,29.88,18,6,0,0.01
2013-7-3,60,46,40,48,42,38,93,87,63,29.94,29.89,10,3,0,0.00
2013-7-4,84,66,43,49,42,39,91,50,21,29.83,29.68,20,6,0,0.00
2013-7-5,84,62,48,55,47,39,89,61,25,29.71,29.52,13,5,0,0.09
2013-7-6,83,64,48,53,50,46,92,66,28,29.78,29.64,13,3,0,0.06
2013-7-7,87,66,54,54,50,46,88,63,25,29.82,29.70,19,4,0,0.14
2013-7-8,86,73,54,53,46,40,85,45,21,29.85,29.74,13,3,0,0.00
2013-7-9,86,78,62,52,44,40,70,32,20,29.90,29.79,18,6,0,0.01
2013-7-10,88,67,51,56,49,43,88,57,25,29.90,29.74,18,5,0,0.04
2013-7-11,92,69,54,54,52,44,90,58,19,29.88,29.62,16,4,0,0.00
2013-7-12,90,66,55,58,49,-100,87,61,22,29.73,29.57,27,5,0,0.14
2013-7-13,89,68,53,59,54,47,91,63,24,29.79,29.69,19,3,0,0.10
2013-7-14,80,63,52,58,53,48,91,73,38,29.94,29.77,23,5,0,0.23
2013-7-15,63,57,52,57,54,49,93,90,81,29.99,29.88,13,4,0,0.24
2013-7-16,69,59,43,53,48,41,94,70,49,30.08,29.98,17,5,0,0.08
2013-7-17,73,66,61,49,48,47,63,53,41,29.94,29.91,9,5,0,0.00
2013-7-18,83,64,48,54,48,-100,91,65,32,29.94,29.73,21,6,0,0.08
2013-7-19,76,61,48,57,52,46,93,74,40,29.91,29.83,20,4,0,0.05
2013-7-20,83,65,46,55,50,45,94,63,32,29.91,29.68,17,5,0,0.00
2013-7-21,89,70,54,53,46,35,88,50,16,29.77,29.58,23,6,0,0.00
2013-7-22,90,68,50,47,42,37,71,44,18,29.75,29.65,19,5,0,0.00
2013-7-23,90,70,47,50,40,30,75,41,13,29.82,29.70,19,6,0,0.00
2013-7-24,73,64,57,56,52,47,86,66,43,29.87,29.75,13,4,0,0.15
2013-7-25,82,61,48,56,51,46,93,73,31,30.01,29.83,18,5,0,0.45
2013-7-26,71,55,46,56,49,44,94,82,52,30.06,29.99,12,2,0,0.00
2013-7-27,85,63,48,57,50,41,91,68,22,30.00,29.70,18,4,0,0.39
2013-7-28,73,62,54,56,54,51,93,77,49,29.81,29.65,14,4,0,0.04
2013-7-29,82,64,54,55,50,46,92,66,29,29.91,29.70,17,5,0,0.00
2013-7-30,84,65,47,50,44,40,88,54,23,30.01,29.91,21,4,0,0.00
2013-7-31,86,62,46,47,43,35,82,56,18,30.05,29.91,14,4,0,0.00
2013-8-1,82,69,53,54,50,45,91,54,30,29.88,29.74,18,6,0,0.05
2013-8-2,87,66,54,55,50,44,88,60,23,29.82,29.67,16,5,0,0.21
2013-8-3,78,64,56,59,53,46,89,70,33,29.98,29.79,13,4,0,0.06
2013-8-4,83,64,50,56,52,47,94,70,30,29.97,29.79,14,4,0,0.17
2013-8-5,83,65,53,55,51,42,88,65,27,29.91,29.76,11,4,0,0.00
2013-8-6,83,62,51,54,50,42,90,70,28,29.86,29.72,20,4,0,0.10
2013-8-7,67,56,47,55,51,44,92,84,62,29.90,29.82,12,2,0,0.14
2013-8-8,66,51,46,51,47,44,93,85,55,30.03,29.85,10,2,0,0.00
2013-8-9,73,56,42,53,46,39,92,71,40,30.10,29.96,22,4,0,0.12
2013-8-10,79,60,45,52,45,39,93,62,24,30.10,29.90,20,4,0,0.00
2013-8-11,76,60,48,52,45,41,87,61,32,30.01,29.85,16,5,0,0.10
2013-8-12,78,59,49,54,48,45,88,69,35,30.00,29.87,15,3,0,0.24
2013-8-13,80,58,45,56,48,41,94,71,32,30.02,29.92,15,5,0,0.12
2013-8-14,76,59,42,55,47,40,93,68,33,30.03,29.88,16,4,0,0.00
2013-8-15,84,61,42,48,42,33,91,58,18,30.00,29.86,15,3,0,0.00
2013-8-16,84,62,42,45,41,35,88,53,19,29.98,29.88,16,4,0,0.00
2013-8-17,86,66,42,51,39,33,81,44,15,29.98,29.80,14,5,0,0.00
2013-8-18,87,64,44,49,44,39,91,54,19,29.92,29.76,19,5,0,0.03
2013-8-19,83,65,45,47,42,39,84,48,22,29.93,29.80,15,5,0,0.00
2013-8-20,86,68,44,47,40,34,81,43,18,29.86,29.71,16,5,0,0.00
2013-8-21,85,66,47,49,44,38,71,48,24,29.88,29.77,14,4,0,0.00
2013-8-22,82,65,51,60,49,42,89,60,32,29.94,29.76,23,6,0,0.10
2013-8-23,80,64,51,59,52,45,93,71,36,29.93,29.68,14,4,0,0.24
2013-8-24,82,64,48,51,47,43,85,57,29,29.86,29.76,12,4,0,0.00
2013-8-25,82,66,52,52,50,48,85,58,34,29.89,29.80,16,4,0,0.00
2013-8-26,87,68,51,52,49,47,86,55,26,29.91,29.76,13,4,0,0.00
2013-8-27,84,66,49,52,48,45,86,55,30,29.86,29.75,20,4,0,0.00
2013-8-28,86,66,45,50,42,33,87,49,16,29.88,29.78,15,4,0,0.00
2013-8-29,90,68,46,49,42,37,76,44,22,29.93,29.80,14,4,0,0.00
2013-8-30,86,70,54,49,45,41,73,44,24,29.91,29.76,13,3,0,0.00
2013-8-31,87,64,54,57,50,44,87,62,26,29.85,29.70,13,3,0,0.17
2013-9-1,76,63,54,59,55,51,91,75,46,29.93,29.83,15,4,0,0.05
2013-9-2,84,62,49,62,53,47,94,74,32,29.91,29.80,14,3,0,0.09
2013-9-3,86,64,52,60,52,48,90,69,30,29.93,29.84,16,3,0,0.15
2013-9-4,84,67,52,56,51,48,88,60,31,29.96,29.88,15,3,0,0.00
2013-9-5,85,66,48,51,46,40,90,55,23,29.98,29.84,12,4,0,0.00
2013-9-6,86,67,47,46,42,39,80,47,20,29.96,29.78,15,5,0,0.00
2013-9-7,84,66,45,46,42,39,82,48,22,29.88,29.74,16,5,0,0.00
2013-9-8,84,73,54,46,42,40,60,35,22,29.75,29.58,13,6,0,0.00
2013-9-9,79,64,49,58,45,40,75,53,33,29.69,29.55,12,4,0,0.07
2013-9-10,66,58,51,54,52,48,93,82,58,29.93,29.69,16,4,0,1.10
2013-9-11,63,58,54,56,54,52,93,89,77,29.97,29.91,15,4,0,0.03
2013-9-12,66,58,55,56,54,53,94,88,66,30.01,29.95,12,3,0,0.00
2013-9-13,62,54,48,54,51,45,94,89,63,29.89,29.72,5,1,0,0.19
2013-9-14,72,57,46,53,47,43,92,71,41,29.80,29.66,14,3,0,0.00
2013-9-15,66,53,42,55,47,40,94,83,58,30.08,29.80,14,4,0,0.50
2013-9-16,72,57,50,55,51,48,94,82,45,30.08,29.88,16,4,0,0.06
2013-9-17,77,62,51,52,46,41,94,62,30,29.93,29.67,11,3,0,0.00
2013-9-18,75,59,49,49,46,43,89,65,34,29.75,29.60,26,6,0,0.04
2013-9-19,70,56,41,47,44,39,91,66,37,29.95,29.71,21,5,0,0.00
2013-9-20,68,56,46,50,47,42,94,74,50,29.96,29.82,15,6,0,0.00
2013-9-21,70,48,40,49,42,38,94,81,35,29.91,29.85,17,3,0,0.00
2013-9-22,65,54,44,50,45,38,91,72,49,29.63,29.38,20,5,0,0.35
2013-9-23,60,49,39,38,31,27,80,54,31,29.99,29.42,24,7,0,0.00
2013-9-24,75,50,31,37,30,23,84,53,15,30.11,29.85,14,4,0,0.00
2013-9-25,74,60,38,35,31,27,76,37,19,29.84,29.41,31,8,0,0.00
2013-9-26,75,63,48,32,26,20,42,25,16,29.45,29.37,33,9,0,0.00
2013-9-27,64,54,38,42,31,20,62,43,33,29.81,29.39,35,14,0,0.00
2013-9-28,66,45,24,26,21,16,77,44,17,30.14,29.82,19,4,0,0.00
2013-9-29,69,50,26,28,23,20,78,41,18,30.14,29.89,22,6,0,0.00
2013-9-30,76,59,36,35,28,20,59,33,22,29.88,29.63,24,6,0,0.00
2013-10-1,72,53,33,37,31,24,71,45,26,29.89,29.73,16,4,0,0.00
2013-10-2,74,51,31,33,26,20,83,45,14,29.92,29.73,11,4,0,0.00
2013-10-3,74,55,34,30,24,20,59,33,15,29.76,29.48,24,7,0,0.00
2013-10-4,56,43,29,41,17,6,85,38,18,30.07,29.43,23,9,0,0.00
2013-10-5,60,41,30,18,10,2,48,31,10,30.25,30.07,18,7,0,0.00
2013-10-6,69,44,25,27,16,9,50,33,19,30.32,30.16,15,5,0,0.00
2013-10-7,77,48,24,29,21,13,69,41,14,30.26,29.95,11,4,0,0.00
2013-10-8,71,53,37,26,23,20,53,33,17,29.95,29.64,17,5,0,0.00
2013-10-9,70,52,35,31,24,19,61,36,17,29.78,29.66,18,4,0,0.00
2013-10-10,63,46,32,38,31,24,86,60,29,29.76,29.43,32,11,0,0.07
2013-10-11,56,45,37,31,25,22,71,47,34,29.99,29.58,31,10,0,0.00
2013-10-12,52,39,22,36,30,19,91,71,52,30.17,29.99,17,5,0,0.00
2013-10-13,57,42,28,42,32,23,90,69,43,30.19,29.93,16,5,0,0.08
2013-10-14,55,46,34,39,26,20,91,49,28,30.00,29.77,31,10,0,0.00
2013-10-15,35,32,28,31,27,24,89,83,75,30.27,30.00,14,5,0,0.04
2013-10-16,48,34,22,34,26,19,91,76,38,30.26,30.07,17,4,0,0.00
2013-10-17,54,35,18,27,19,14,86,58,21,30.22,29.98,19,4,0,0.00
2013-10-18,43,30,20,29,24,16,89,77,50,30.30,30.01,19,4,0,0.02
2013-10-19,58,38,16,23,18,11,88,51,22,30.33,30.03,18,6,0,0.00
2013-10-20,58,41,24,32,22,15,86,52,23,30.06,29.82,14,4,0,0.00
2013-10-21,55,36,24,35,27,21,92,73,27,30.29,30.07,13,4,0,0.11
2013-10-22,63,39,19,29,23,16,88,59,25,30.36,30.18,14,4,0,0.00
2013-10-23,66,41,21,29,22,17,86,55,17,30.25,30.11,12,4,0,0.00
2013-10-24,64,39,23,33,26,19,87,64,26,30.28,30.12,20,6,0,0.00
2013-10-25,62,43,24,35,28,21,90,61,28,30.28,30.11,15,5,0,0.00
2013-10-26,59,42,26,35,29,21,90,64,32,30.27,30.14,14,4,0,0.00
2013-10-27,60,41,24,29,25,20,87,58,28,30.20,29.88,18,5,0,0.00
2013-10-28,58,41,30,31,26,21,88,61,27,29.92,29.75,23,8,0,0.00
2013-10-29,55,42,24,36,24,19,89,55,24,29.93,29.78,30,9,0,0.05
2013-10-30,49,36,23,33,22,17,90,59,29,29.87,29.73,17,6,0,0.00
2013-10-31,51,34,18,19,17,12,78,52,28,30.04,29.87,23,6,0,0.00
2013-11-1,53,34,19,24,19,13,84,58,27,30.34,30.02,15,5,0,0.00
2013-11-2,64,37,16,20,13,8,86,47,11,30.37,29.94,15,4,0,0.00
2013-11-3,58,47,32,24,19,13,46,33,26,29.93,29.49,25,9,0,0.00
2013-11-4,40,29,23,26,21,13,91,72,44,30.03,29.65,18,6,0,0.04
2013-11-5,36,25,9,30,22,5,90,86,78,30.35,29.97,13,3,0,0.10
2013-11-6,45,25,5,19,11,1,87,60,30,30.62,30.36,26,5,0,0.00
2013-11-7,58,34,13,23,17,9,84,56,24,30.64,30.20,12,4,0,0.00
2013-11-8,59,44,26,20,17,14,71,37,21,30.20,29.86,33,8,0,0.00
2013-11-9,60,38,20,25,20,14,79,53,21,30.29,30.01,14,4,0,0.00
2013-11-10,62,38,17,25,18,14,87,54,19,30.38,30.23,15,4,0,0.00
2013-11-11,61,38,19,27,19,12,89,55,20,30.57,30.29,19,5,0,0.00
2013-11-12,54,32,22,29,24,17,91,73,32,30.66,30.55,15,4,0,0.00
2013-11-13,58,38,18,21,17,12,84,48,21,30.59,30.09,17,6,0,0.00
2013-11-14,56,40,24,28,21,15,87,51,24,30.09,29.82,14,5,0,0.00
2013-11-15,52,39,21,32,21,13,91,54,29,29.82,29.53,29,8,0,0.03
2013-11-16,47,39,31,31,23,17,91,58,33,29.53,29.36,36,12,0,0.05
2013-11-17,50,37,19,28,20,14,85,54,29,30.15,29.53,27,7,0,0.00
2013-11-18,58,32,14,21,14,9,86,56,18,30.32,30.15,12,4,0,0.00
2013-11-19,53,39,24,22,18,13,69,45,27,30.20,29.82,22,6,0,0.00
2013-11-20,54,39,22,28,21,15,80,52,29,29.89,29.75,14,4,0,0.00
2013-11-21,38,23,10,31,19,7,90,86,71,30.64,29.84,15,6,0,0.00
2013-11-22,23,17,11,21,14,8,90,88,86,30.81,30.65,0,0,0,0.36
2013-11-23,25,23,19,21,18,15,90,83,71,30.80,30.58,0,0,0,0.00
2013-11-24,31,29,24,28,25,20,92,86,77,30.35,30.12,13,1,0,0.22
2013-11-25,35,27,8,24,19,5,88,73,61,30.44,30.12,22,7,0,0.05
2013-11-26,25,8,1,16,4,-3,85,82,69,30.72,30.66,6,3,0,0.00
2013-11-27,44,20,1,23,12,-3,88,73,43,30.71,30.43,12,4,0,0.00
2013-11-28,45,22,8,23,13,4,89,73,37,30.52,30.39,7,3,0,0.00
2013-11-29,48,28,10,19,13,7,89,59,28,30.48,30.37,20,5,0,0.00
2013-11-30,46,27,6,20,12,1,85,57,30,30.47,30.34,17,5,0,0.00
2013-12-1,46,28,8,20,13,3,85,57,33,30.41,30.14,19,5,0,0.00
2013-12-2,50,40,26,22,19,16,68,44,33,30.15,29.61,33,11,0,0.00
2013-12-3,47,39,19,25,19,16,87,47,37,29.61,29.37,25,9,0,0.00
2013-12-4,18,6,-3,16,2,-7,88,84,80,30.35,29.44,24,10,0,0.13
2013-12-5,8,-7,-23,4,-12,-29,83,78,72,30.64,30.36,13,5,0,0.00
2013-12-6,14,-7,-24,9,-13,-30,81,77,72,30.81,30.64,13,3,0,0.00
2013-12-7,16,0,-16,11,-5,-22,83,79,74,30.80,30.19,11,2,0,0.00
2013-12-8,23,11,-3,13,-1,-13,87,61,28,30.28,30.07,26,6,0,0.00
2013-12-9,19,5,-12,1,-9,-19,82,57,32,30.70,30.28,24,6,0,0.00
2013-12-10,36,24,-4,10,2,-14,63,40,31,30.72,30.31,30,8,0,0.00
2013-12-11,40,19,0,14,5,-5,83,59,28,30.69,30.39,18,4,0,0.00
2013-12-12,48,28,14,15,6,0,55,41,21,30.68,30.14,12,4,0,0.00
2013-12-13,48,28,15,15,9,4,74,46,23,30.23,29.93,12,4,0,0.00
2013-12-14,39,22,2,16,8,-2,84,59,32,30.53,30.24,13,4,0,0.00
2013-12-15,49,30,12,21,14,5,77,52,30,30.51,30.35,20,6,0,0.00
2013-12-16,52,30,10,22,13,4,78,53,27,30.48,30.30,16,5,0,0.00
2013-12-17,53,30,11,22,14,6,80,57,24,30.56,30.37,14,5,0,0.00
2013-12-18,55,37,17,18,14,9,73,43,18,30.35,29.80,19,5,0,0.00
2013-12-19,48,38,22,20,17,16,84,46,29,29.78,29.51,24,8,0,0.00
2013-12-20,43,28,18,24,19,13,89,72,38,29.75,29.64,13,3,0,0.00
2013-12-21,38,22,8,19,13,4,87,71,35,30.01,29.61,13,4,0,0.00
2013-12-22,32,19,2,15,8,-3,87,63,38,30.40,30.02,17,5,0,0.00
2013-12-23,38,30,12,15,11,4,71,47,31,30.51,30.40,18,6,0,0.00
2013-12-24,44,33,12,21,16,5,77,51,36,30.39,30.06,33,8,0,0.00
2013-12-25,37,20,7,11,5,-1,77,54,27,30.61,30.33,11,4,0,0.00
2013-12-26,47,25,9,14,7,1,73,50,25,30.61,30.46,10,3,0,0.00
2013-12-27,51,27,12,22,14,5,81,61,31,30.55,30.30,10,3,0,0.00
2013-12-28,50,32,16,29,18,11,82,60,32,30.30,29.96,13,4,0,0.00
2013-12-29,30,18,7,19,11,3,85,74,60,30.27,30.16,12,4,0,0.05
2013-12-30,43,24,9,16,10,3,83,58,29,30.50,30.27,8,3,0,0.00
2013-12-31,47,38,24,22,16,9,53,41,33,30.38,29.96,20,7,0,0.00
2014-1-1,43,33,18,26,17,7,85,55,25,30.30,29.87,16,6,0,0.01
2014-1-2,46,19,6,16,8,2,85,68,24,30.48,30.29,6,2,0,0.00